Location: Wanzleben
(52.0609°N, 11.4408°E)
Time: 07:15:03
(UTC+00:00)

NOSS 3-1 (C) - Pass Details

Date: 18 September 2020
Orbit: 743 x 1466 km, 63.4° (Epoch: 09 October)

Event Time Altitude Azimuth Distance (km) Brightness Sun altitude
Rises 17:45:39 0° 244° (WSW) 3,332 7.3 -4.6°
Reaches altitude 10° 17:47:59 10° 249° (WSW) 2,471 6.7 -4.9°
Maximum altitude 17:53:35 56° 327° (NNW) 1,122 4.2 -5.8°
Drops below altitude 10° 18:00:18 10° 45° (NE) 2,937 5.7 -6.8°
Sets 18:03:18 0° 50° (NE) 4,015 6.3 -7.3°
